Home   Weather   Pasco   Past weeks
Flag for USA

Past Weather in Pasco, Washington, USA — Yesterday and Last 2 Weeks

Now
76 °F

Clear.


Feels Like: 78 °F
Forecast: 94 / 57 °F
Wind: No wind

Location: Tri-Cities Airport

Current Time: Aug 19, 2019 at 10:15:16 pm

Latest Report: Aug 19, 2019 at 9:53 pm


Visibility: 10 mi

Pressure: 29.83 "Hg

Humidity: 48%

Dew Point: 55 °F

Location of PascoLocation

Past Weather in Pasco — Graph

°F

Pasco Temperature Yesterday

Maximum temperature yesterday: 92 °F (at 5:53 pm)
Minimum temperature yesterday: 63 °F (at 5:53 am)
Average temperature yesterday: 76 °F

High & Low Weather Summary for the Past Weeks

 TemperatureHumidityPressure
High103 °F (Aug 7, 5:53 pm)100% (Aug 11, 9:53 am)30.12 "Hg (Aug 11, 9:53 am)
Low53 °F (Aug 13, 5:53 am)15% (Aug 5, 4:53 pm)29.66 "Hg (Aug 18, 6:53 pm)
Average77 °F49%29.88 "Hg
* Reported Aug 4 8:53 pm — Aug 19 8:53 pm, Pasco. Weather by CustomWeather, © 2019

Note: Actual official high and low records may vary slightly from our data, if they occured in-between our weather recording intervals... More about our weather records

Advertising

Pasco Weather History for the Previous 24 Hours

Scroll right to see more
 ConditionsComfort  
Time TempWeatherWind HumidityBarometerVisibility
8:53 pm
Mon, Aug 19
79 °FClear.No wind38%29.82 "Hg10 mi
7:53 pm88 °FSunny.6 mph26%29.81 "Hg10 mi
6:53 pm91 °FSunny.6 mph24%29.80 "Hg10 mi
5:53 pm92 °FSunny.9 mph23%29.81 "Hg10 mi
4:53 pm93 °FSunny.3 mph21%29.81 "Hg10 mi
3:53 pm91 °FSunny.5 mph25%29.83 "Hg10 mi
2:53 pm92 °FSunny.N/A23%29.83 "Hg10 mi
1:53 pm90 °FSunny.5 mph22%29.85 "Hg10 mi
12:53 pm86 °FSunny.No wind28%29.85 "Hg10 mi
11:53 am85 °FSunny.6 mph31%29.86 "Hg10 mi
10:53 am81 °FSunny.No wind35%29.87 "Hg10 mi
9:53 am79 °FSunny.6 mph39%29.87 "Hg10 mi
8:53 am75 °FSunny.7 mph45%29.86 "Hg10 mi
7:53 am72 °FSunny.10 mph49%29.84 "Hg10 mi
6:53 am70 °FSunny.9 mph53%29.82 "Hg10 mi
5:53 am67 °FClear.6 mph59%29.80 "Hg10 mi
4:53 am68 °FClear.5 mph57%29.79 "Hg10 mi
3:53 am67 °FClear.3 mph61%29.76 "Hg10 mi
2:53 am69 °FClear.5 mph57%29.75 "Hg10 mi
1:53 am72 °FClear.12 mph52%29.73 "Hg10 mi
12:53 am74 °FClear.10 mph46%29.72 "Hg10 mi
11:53 pm
Sun, Aug 18
76 °FClear.10 mph42%29.71 "Hg10 mi
10:53 pm77 °FClear.6 mph35%29.70 "Hg10 mi
Weather by CustomWeather, © 2019

See weather overview